Location: Seven Kings
(51.5667°N, 0.1000°E)
Time: 03:39:05
(UTC+00:00)

USA 308 - Pass Details

Date: 29 October 2020
Orbit: 571 x 578 km, 54.0° (Epoch: 23 November)

Event Time Altitude Azimuth Distance (km) Brightness Sun altitude
Rises 18:43:09 0° 292° (WNW) 2,788 7.7 -20.0°
Reaches altitude 10° 18:45:32 10° 284° (WNW) 1,885 6.7 -20.4°
Maximum altitude 18:49:28 36° 217° (SW) 911 4.1 -21.0°
Enters shadow 18:51:17 25° 170° (S) 1,185 4.3 -21.3°
